Regional Weather Roundup
Issued by NWS

Home | Current Version | Previous Version | Graphics & Text | Print | Product List | Glossary On
Versions: 1 2 3 4 5 6 7 8 9 10 11 12 13 14 15 16 17 18 19 20 21 22 23 24 25 26 27 28 29 30 31 32 33 34 35 36 37 38 39 40 41 42 43 44 45 46 47 48 49 50
000
ASUS43 KFSD 052210
RWRSD

WEATHER ROUNDUP FOR SOUTH DAKOTA
NATIONAL WEATHER SERVICE SIOUX FALLS SD
500 PM CDT SUN JUL 05 2015

NOTE: "FAIR" INDICATES FEW OR NO CLOUDS BELOW 12,000 FEET WITH NO
SIGNIFICANT WEATHER AND/OR OBSTRUCTIONS TO VISIBILITY.


SDZ001>005-009-010-012>017-052300-
NORTHWEST AND NORTH CENTRAL SOUTH DAKOTA

CITY           SKY/WX    TMP DP  RH WIND       PRES   REMARKS
BUFFALO          N/A     68  57  68 N21G28    29.92S
FAITH            N/A     73  62  68 N26G32    29.91R
MOBRIDGE       CLOUDY    81  67  62 N17G25    29.83R
$$

SDZ012>016-024>037-041>051-057-063-072>074-052300-
SOUTHWEST AND SOUTH CENTRAL SOUTH DAKOTA

CITY           SKY/WX    TMP DP  RH WIND       PRES   REMARKS
RAPID CTY ARPT CLOUDY    77  64  64 N20G29    29.92R
PIERRE         CLOUDY    84  73  69 NE10      29.75F
CUSTER         CLOUDY    70  60  70 NE14      30.03R
ELLSWORTH AFB  CLOUDY    78  63  61 N20       29.92R
PHILIP         PTSUNNY   77  70  79 N24G30    29.80R
PINE RIDGE     TSTM      77  71  82 NE12G18   29.84R
SPEARFISH      LGT RAIN  64  63  94 NW10      30.04R
WINNER         FAIR      95  67  39 SE8       29.73F HX  99
$$

SDZ004>011-016>023-039-040-052300-
NORTHEAST SOUTH DAKOTA

CITY           SKY/WX    TMP DP  RH WIND       PRES   REMARKS
ABERDEEN       PTSUNNY   89  69  51 CALM      29.75S
WATERTOWN      CLOUDY    87  71  58 S3        29.78S
BROOKINGS      PTSUNNY   86  72  62 SE16      29.81F
SISSETON         N/A     86  70  58 CALM      29.73F
$$

SDZ017-020-022-023-036>040-048>070-052300-
SOUTHEAST SOUTH DAKOTA

CITY           SKY/WX    TMP DP  RH WIND       PRES   REMARKS
SIOUX FALLS    PTSUNNY   85  71  63 S13       29.80F
HURON          CLOUDY    89  71  55 CALM      29.73F HX  95
CHAMBERLAIN    PTSUNNY   88  71  57 E5        29.74F
MITCHELL       PTSUNNY   89  73  59 SE12      29.75F HX  97
YANKTON        PTSUNNY   88  73  62 SE15      29.76S HX  96
$$

ABBREVIATIONS USED IN REMARKS
   TC - TEMPERATURE IN CELSIUS
  WCI - WIND CHILL INDEX
   HX - HEAT INDEX
  VSB - VISIBILITY




USA.gov is the U.S. government's official web portal to all federal, state and local government web resources and services.